Weather History for Grant County, OR

Change the Weather History Date:

Thursday, September 6, 2012

  Actual Average (KBNO) Record (KBNO)
Temperature  
Mean Temperature 66 °F 59 °F  
Max Temperature 82 °F 79 °F 96 °F (1955)
Min Temperature 50 °F 40 °F 25 °F (2010)
Degree Days  
Heating Degree Days 0 6  
Month to date heating degree days 34  
Since 1 July heating degree days 171  
Cooling Degree Days 1 1  
Month to date cooling degree days 6  
Year to date cooling degree days 212  
Growing Degree Days 16 (Base 50)    
Moisture  
Dew Point 33 °F    
Average Humidity 30    
Maximum Humidity 50    
Minimum Humidity 12    
Precipitation  
Precipitation 0.00 in 0.01 in 0.04 in (1991)
Month to date precipitation 0.08  
Year to date precipitation 7.06  
Sea Level Pressure  
Sea Level Pressure 30.07 in    
Wind  
Wind Speed 5 mph (North)    
Max Wind Speed 15 mph    
Max Gust Speed 18 mph    
Visibility 10 miles    
Events      
T = Trace of Precipitation, MM = Missing Value Source: NWS Daily Summary

Daily Weather History Graph

Daily Weather History Graph

Search for Another Location

Airport:

Trip Planner

Search our weather history database for the weather conditions in past years. The results will help you decide how hot, cold, wet, or windy it might be!

Date:

Astronomy

Sep. 06, 2012 Rise Set
Actual Time 6:25 AM PDT 7:22 PM PDT
Civil Twilight 5:55 AM PDT 7:51 PM PDT
Nautical Twilight 5:20 AM PDT 8:26 PM PDT
Astronomical Twilight 4:43 AM PDT 9:03 PM PDT
Moon 10:19 PM PDT (9/6) 12:44 PM PDT (9/6)
Length of Visible Light 13h 56m
Length of Day
12h 56m
Waning Gibbous, 66% of the Moon is Illuminated
Sep 6
Waning Gibbous
Sep 8
Last Quarter
Sep 15
New
Sep 22
First Quarter
Sep 29
Full

Hourly Weather History & Observations

Time (PDT) Temp. Dew Point Humidity Pressure Visibility Wind Dir Wind Speed Gust Speed Precip Events Conditions
12:15 AM 62.6 °F 32.0 °F 32% 30.02 in 10.0 mi East 3.5 mph - N/A   Clear
12:35 AM 62.6 °F 33.8 °F 34% 30.02 in 10.0 mi East 4.6 mph - N/A   Clear
12:55 AM 60.8 °F 32.0 °F 34% 30.03 in 10.0 mi East 5.8 mph - N/A   Clear
1:35 AM 59.0 °F 32.0 °F 36% 30.02 in 10.0 mi East 6.9 mph - N/A   Clear
1:55 AM 59.0 °F 32.0 °F 36% 30.02 in 10.0 mi East 5.8 mph - N/A   Clear
2:15 AM 59.0 °F 32.0 °F 36% 30.01 in 10.0 mi East 8.1 mph - N/A   Clear
2:35 AM 57.2 °F 32.0 °F 38% 30.01 in 10.0 mi ESE 6.9 mph - N/A   Clear
2:55 AM 55.4 °F 32.0 °F 41% 30.02 in 10.0 mi ESE 8.1 mph - N/A   Clear
3:15 AM 57.2 °F 32.0 °F 38% 30.02 in 10.0 mi East 6.9 mph - N/A   Clear
3:35 AM 57.2 °F 32.0 °F 38% 30.02 in 10.0 mi ESE 3.5 mph - N/A   Clear
3:55 AM 55.4 °F 32.0 °F 41% 30.03 in 10.0 mi WSW 3.5 mph - N/A   Clear
4:15 AM 55.4 °F 32.0 °F 41% 30.03 in 10.0 mi Calm Calm - N/A   Clear
4:35 AM 57.2 °F 33.8 °F 41% 30.03 in 10.0 mi Calm Calm - N/A   Clear
4:55 AM 55.4 °F 33.8 °F 44% 30.04 in 10.0 mi Calm Calm - N/A   Clear
5:15 AM 53.6 °F 32.0 °F 44% 30.04 in 10.0 mi SW 3.5 mph - N/A   Clear
5:35 AM 53.6 °F 32.0 °F 44% 30.05 in 10.0 mi NNE 3.5 mph - N/A   Clear
5:55 AM 50.0 °F 32.0 °F 50% 30.05 in 10.0 mi SE 6.9 mph - N/A   Clear
6:15 AM 51.8 °F 32.0 °F 47% 30.06 in 10.0 mi East 8.1 mph - N/A   Clear
6:55 AM 51.8 °F 32.0 °F 47% 30.07 in 10.0 mi NE 5.8 mph - N/A   Clear
7:15 AM 51.8 °F 33.8 °F 50% 30.08 in 10.0 mi SE 11.5 mph - N/A   Clear
7:35 AM 53.6 °F 33.8 °F 47% 30.09 in 10.0 mi ESE 8.1 mph - N/A   Clear
7:55 AM 55.4 °F 33.8 °F 44% 30.09 in 10.0 mi East 5.8 mph - N/A   Clear
8:15 AM 59.0 °F 33.8 °F 39% 30.09 in 10.0 mi ESE 5.8 mph - N/A   Clear
8:35 AM 59.0 °F 33.8 °F 39% 30.09 in 10.0 mi East 5.8 mph - N/A   Clear
8:55 AM 60.8 °F 33.8 °F 36% 30.10 in 10.0 mi East 3.5 mph - N/A   Clear
9:15 AM 60.8 °F 33.8 °F 36% 30.10 in 10.0 mi Calm Calm - N/A   Clear
9:35 AM 64.4 °F 35.6 °F 34% 30.10 in 10.0 mi Calm Calm - N/A   Clear
9:55 AM 64.4 °F 35.6 °F 34% 30.10 in 10.0 mi Calm Calm - N/A   Clear
10:15 AM 68.0 °F 35.6 °F 30% 30.10 in 10.0 mi SW 3.5 mph - N/A   Clear
10:35 AM 68.0 °F 35.6 °F 30% 30.10 in 10.0 mi Calm Calm - N/A   Clear
10:55 AM 69.8 °F 35.6 °F 28% 30.10 in 10.0 mi SSW 3.5 mph - N/A   Clear
11:15 AM 71.6 °F 35.6 °F 27% 30.10 in 10.0 mi West 4.6 mph - N/A   Clear
11:35 AM 73.4 °F 33.8 °F 23% 30.08 in 10.0 mi WSW 4.6 mph - N/A   Clear
11:55 AM 75.2 °F 33.8 °F 22% 30.08 in 10.0 mi WSW 4.6 mph - N/A   Clear
12:15 PM 71.6 °F 35.6 °F 27% 30.07 in 10.0 mi WNW 8.1 mph - N/A   Clear
12:35 PM 73.4 °F 33.8 °F 23% 30.08 in 10.0 mi WNW 5.8 mph - N/A   Clear
12:55 PM 77.0 °F 33.8 °F 21% 30.07 in 10.0 mi West 5.8 mph - N/A   Clear
1:15 PM 77.0 °F 32.0 °F 19% 30.07 in 10.0 mi West 5.8 mph - N/A   Clear
1:35 PM 80.6 °F 28.4 °F 15% 30.07 in 10.0 mi West 9.2 mph - N/A   Clear
1:55 PM 80.6 °F 23.0 °F 12% 30.07 in 10.0 mi West 9.2 mph 16.1 mph N/A   Clear
2:15 PM 80.6 °F 26.6 °F 14% 30.06 in 10.0 mi West 3.5 mph - N/A   Clear
2:35 PM 82.4 °F 32.0 °F 16% 30.05 in 10.0 mi NW 13.8 mph 18.4 mph N/A   Clear
2:55 PM 80.6 °F 30.2 °F 16% 30.06 in 10.0 mi North 9.2 mph 16.1 mph N/A   Clear
3:15 PM 80.6 °F 30.2 °F 16% 30.06 in 10.0 mi North 8.1 mph 17.3 mph N/A   Clear
3:35 PM 80.6 °F 32.0 °F 17% 30.06 in 10.0 mi NW 5.8 mph - N/A   Clear
3:55 PM 80.6 °F 30.2 °F 16% 30.05 in 10.0 mi NW 4.6 mph - N/A   Clear
4:15 PM 80.6 °F 28.4 °F 15% 30.05 in 10.0 mi North 8.1 mph 16.1 mph N/A   Clear
4:35 PM 80.6 °F 26.6 °F 14% 30.05 in 10.0 mi NW 13.8 mph - N/A   Clear
4:55 PM 80.6 °F 26.6 °F 14% 30.06 in 10.0 mi NW 15.0 mph 18.4 mph N/A   Clear
5:15 PM 80.6 °F 28.4 °F 15% 30.06 in 10.0 mi NW 9.2 mph 17.3 mph N/A   Clear
5:35 PM 80.6 °F 28.4 °F 15% 30.06 in 10.0 mi NNW 10.4 mph - N/A   Clear
5:55 PM 78.8 °F 30.2 °F 17% 30.07 in 10.0 mi NNW 10.4 mph 18.4 mph N/A   Clear
6:15 PM 78.8 °F 30.2 °F 17% 30.07 in 10.0 mi NNW 11.5 mph 16.1 mph N/A   Clear
6:35 PM 77.0 °F 30.2 °F 18% 30.07 in 10.0 mi North 10.4 mph - N/A   Clear
6:55 PM 75.2 °F 30.2 °F 19% 30.07 in 10.0 mi North 9.2 mph - N/A   Clear
7:15 PM 71.6 °F 32.0 °F 23% 30.08 in 10.0 mi North 3.5 mph - N/A   Clear
7:35 PM 71.6 °F 32.0 °F 23% 30.08 in 10.0 mi Calm Calm - N/A   Clear
7:55 PM 69.8 °F 33.8 °F 27% 30.09 in 10.0 mi Calm Calm - N/A   Clear
8:15 PM 69.8 °F 35.6 °F 28% 30.10 in 10.0 mi East 3.5 mph - N/A   Clear
8:35 PM 69.8 °F 35.6 °F 28% 30.11 in 10.0 mi North 4.6 mph - N/A   Clear
8:55 PM 68.0 °F 35.6 °F 30% 30.12 in 10.0 mi NW 5.8 mph - N/A   Clear
9:15 PM 66.2 °F 35.6 °F 32% 30.12 in 10.0 mi Calm Calm - N/A   Clear
9:35 PM 64.4 °F 35.6 °F 34% 30.12 in 10.0 mi North 8.1 mph - N/A   Clear
9:55 PM 66.2 °F 35.6 °F 32% 30.13 in 10.0 mi Calm Calm - N/A   Clear
10:15 PM 64.4 °F 35.6 °F 34% 30.14 in 10.0 mi Calm Calm - N/A   Clear
10:35 PM 64.4 °F 35.6 °F 34% 30.14 in 10.0 mi Calm Calm - N/A   Clear
11:15 PM 60.8 °F 35.6 °F 39% 30.15 in 10.0 mi SW 5.8 mph - N/A   Clear
11:35 PM 59.0 °F 35.6 °F 42% 30.16 in 10.0 mi WNW 5.8 mph - N/A   Clear
11:55 PM 59.0 °F 35.6 °F 42% 30.17 in 10.0 mi Calm Calm - N/A   Clear